Flag for South Korea Weather past 2 weeks in Incheon, South Korea

Now
32 °F

Passing clouds.


Feels Like: 26 °F
Forecast: 32 / 43 °F
Wind: 7 mph from Southeast

Location: Incheon International Airport

Current Time: Dec 29, 2014 at 12:22:28 AM

Latest Report: Dec 29, 2014 at 12:00 AM


Visibility: 4 mi

Pressure: 30.04 "Hg

Humidity: 75%

Dew point: 25 °F

Location of IncheonLocation

Historic Weather in Incheon — Graph

°F

Incheon temperature yesterday

Maximum temperature yesterday: 36 °F (at 2:30 PM)
Minimum temperature yesterday: 25 °F (at 12:30 AM)
Average temperature yesterday: 31 °F

Past Weeks' High & Low Weather Summary

 TemperatureHumidityPressure
High43 °F (Dec 24, 3:00 AM)93% (Dec 14, 7:00 PM)30.60 "Hg (Dec 14, 7:00 PM)
Low14 °F (Dec 18, 4:00 AM)24% (Dec 21, 12:30 PM)30.01 "Hg (Dec 16, 12:30 AM)
Average28 °F59%30.30 "Hg
* Reported Dec 13 11:00 PM — Dec 28 11:00 PM, Incheon, Weather by CustomWeather, © 2014

Note: Actual official high and low records may vary slightly from our data, if they occured in-between our weather recording intervals... More about our weather records

Advertising

Incheon weather history for previous 24 hours

 ConditionsComfort  
Time TempWeatherWind HumidityBarometerVisibility
11:00 PM
Dec 28
32 °FPassing clouds.8 mph80%30.07 "Hg4 mi
10:30 PM32 °FPassing clouds.7 mph75%30.07 "Hg4 mi
10:00 PM34 °FPassing clouds.8 mph70%30.07 "Hg4 mi
9:30 PM34 °FPassing clouds.9 mph70%30.09 "Hg4 mi
9:00 PM34 °FPassing clouds.9 mph70%30.09 "Hg4 mi
8:30 PM36 °FPassing clouds.8 mph65%30.09 "Hg4 mi
8:00 PM36 °FPartly cloudy.9 mph65%30.09 "Hg4 mi
7:30 PM36 °FPartly cloudy.9 mph65%30.09 "Hg4 mi
7:00 PM36 °FPassing clouds.9 mph65%30.09 "Hg4 mi
6:30 PM36 °FPassing clouds.10 mph65%30.09 "Hg4 mi
6:00 PM36 °FPartly sunny.9 mph65%30.09 "Hg4 mi
5:30 PM36 °FPartly sunny.10 mph65%30.09 "Hg4 mi
5:00 PM36 °FPartly sunny.10 mph60%30.09 "Hg4 mi
4:30 PM36 °FPartly sunny.10 mph60%30.12 "Hg4 mi
4:00 PM36 °FPartly sunny.10 mph60%30.12 "Hg4 mi
3:30 PM36 °FMostly cloudy.9 mph60%30.12 "Hg4 mi
3:00 PM36 °FPartly sunny.9 mph60%30.12 "Hg4 mi
2:30 PM36 °FPartly sunny.8 mph60%30.12 "Hg4 mi
2:00 PM34 °FPartly sunny.9 mph65%30.12 "Hg4 mi
1:30 PM34 °FPartly sunny.9 mph60%30.15 "Hg4 mi
12:30 PM34 °FBroken clouds.12 mph56%30.15 "Hg4 mi
12:00 PM34 °FBroken clouds.13 mph56%30.18 "Hg4 mi
11:30 AM34 °FBroken clouds.12 mph56%30.18 "Hg4 mi
11:00 AM32 °FPartly sunny.12 mph60%30.21 "Hg4 mi
10:30 AM32 °FPartly sunny.12 mph64%30.21 "Hg4 mi
10:00 AM32 °FPartly sunny.10 mph64%30.24 "Hg4 mi
9:30 AM30 °FPartly sunny.10 mph69%30.24 "Hg4 mi
9:00 AM30 °FPartly sunny.10 mph75%30.24 "Hg4 mi
8:30 AM28 °FPassing clouds.8 mph74%30.24 "Hg4 mi
8:00 AM28 °FPassing clouds.10 mph74%30.24 "Hg4 mi
7:30 AM28 °FPassing clouds.10 mph74%30.27 "Hg5 mi
7:00 AM27 °FPassing clouds.9 mph80%30.27 "Hg4 mi
6:30 AM27 °FPassing clouds.7 mph80%30.27 "Hg4 mi
6:00 AM25 °FPassing clouds.10 mph80%30.27 "Hg4 mi
5:30 AM28 °FPassing clouds.9 mph69%30.27 "Hg5 mi
5:00 AM28 °FPassing clouds.8 mph74%30.27 "HgN/A
4:30 AM30 °FPassing clouds.8 mph69%30.30 "HgN/A
4:00 AM30 °FPassing clouds.6 mph69%30.30 "HgN/A
3:30 AM28 °FPassing clouds.6 mph64%30.30 "HgN/A
3:00 AM27 °FPassing clouds.3 mph64%30.33 "HgN/A
2:30 AM28 °FPassing clouds.5 mph59%30.33 "HgN/A
2:00 AM27 °FPassing clouds.2 mph59%30.33 "HgN/A
1:30 AM27 °FPassing clouds.1 mph64%30.33 "HgN/A
1:00 AM25 °FPassing clouds.1 mph59%30.33 "HgN/A
12:30 AM25 °FClear.5 mph69%30.36 "Hg10 mi
12:00 AM27 °FClear.3 mph69%30.36 "Hg10 mi
Weather by CustomWeather, © 2014

See weather overviewHow to use our weather pages